Seaguard RCM IW,,,,,,,,,,,,
Product number:,4431,,,,,,,,,,,
Serial number:,155,,,,,,,,,,,
Deployment,BPR2,,,,,,,,,,,
,DCS #146(146),,,,,,,Conductivity Sensor #788(788),Tide Sensor #393(393),,,
Time,northward_seawater_velocity,eastward_seawater_velocity,Instrument_heading_Deg,Tilt_X_Deg,Tilt_Y_Deg,Single_ping_Std_cm_s-1,Signal_Strength_dB,sea_water_electrical_conductivity,sea_water_temperature,sea_water_pressure, Latitude, Longitude
2018-11-13T08:55:53,0.00637,-0.01269,337.379,-1.047,-0.05,7.277,-37.259,4.7149,14.606,1261.4562,40.7934,29.0312
2018-11-13T09:00:53,0.00985,-0.0095,337.122,-0.948,-0.061,6.113,-32.99,4.7149,14.606,1261.4546,40.7934,29.0312
2018-11-13T09:05:53,0.0012,-0.01333,337.179,-0.994,0.027,4.528,-30.733,4.715,14.609,1261.453,40.7934,29.0312
2018-11-13T09:10:53,-0.00602,-0.00201,337.202,-1.012,0.08,5.376,-34.92,4.7151,14.61,1261.4571,40.7934,29.0312
2018-11-13T09:15:53,0.01759,-0.01221,337.195,-1.025,0.127,5.186,-36.661,4.715,14.613,1261.457,40.7934,29.0312
2018-11-13T09:20:53,-0.00048,-0.01244,337.164,-1.039,0.156,3.852,-34.084,4.7151,14.609,1261.4544,40.7934,29.0312
2018-11-13T09:25:53,-0.00004,0.0011,337.231,-1.041,0.188,5.215,-32.068,4.7151,14.61,1261.4626,40.7934,29.0312
2018-11-13T09:30:53,0.00978,0.00214,337.23,-1.039,0.208,4.904,-33.909,4.715,14.61,1261.4639,40.7934,29.0312
2018-11-13T09:35:53,0.00937,-0.01094,337.215,-1.041,0.216,4.161,-39.592,4.715,14.61,1261.4624,40.7934,29.0312
2018-11-13T09:40:53,0.00467,-0.01428,337.104,-1.034,0.219,3.688,-41.122,4.715,14.608,1261.4599,40.7934,29.0312
2018-11-13T09:45:53,0.00137,-0.00683,337.296,-1.041,0.256,4.354,-41.03,4.715,14.608,1261.4618,40.7934,29.0312
2018-11-13T09:50:53,-0.00035,-0.0058,337.193,-1.044,0.248,4.184,-42.413,4.7151,14.607,1261.4588,40.7934,29.0312
2018-11-13T09:55:53,-0.00304,-0.00911,337.231,-1.033,0.261,3.907,-41.984,4.7151,14.607,1261.4578,40.7934,29.0312
2018-11-13T10:00:53,0.00617,-0.0123,337.274,-1.035,0.268,3.839,-42.229,4.715,14.609,1261.4589,40.7934,29.0312
2018-11-13T10:05:53,-0.00909,-0.0113,337.172,-1.033,0.273,3.926,-43.133,4.715,14.607,1261.4608,40.7934,29.0312
2018-11-13T10:10:53,0.00164,-0.01316,337.276,-1.029,0.276,3.236,-43.324,4.715,14.606,1261.4635,40.7934,29.0312
2018-11-13T10:15:53,0.00841,-0.00713,337.275,-1.034,0.286,3.967,-43.328,4.715,14.605,1261.464,40.7934,29.0312
2018-11-13T10:20:53,0.00398,-0.00167,337.294,-1.03,0.278,4.172,-43.757,4.715,14.606,1261.4572,40.7934,29.0312
2018-11-13T10:25:53,0.00536,-0.01637,337.308,-1.033,0.287,3.797,-43.329,4.7149,14.606,1261.4618,40.7934,29.0312
2018-11-13T10:30:53,-0.00112,-0.0109,337.311,-1.025,0.292,3.644,-44.092,4.715,14.604,1261.4603,40.7934,29.0312
2018-11-13T10:35:53,0.00543,-0.0139,337.311,-1.027,0.289,4.502,-42.547,4.7151,14.605,1261.4635,40.7934,29.0312
2018-11-13T10:40:53,0.00388,-0.00517,337.15,-1.022,0.289,3.776,-43.454,4.7151,14.606,1261.46,40.7934,29.0312
2018-11-13T10:45:53,0.00469,-0.01362,337.296,-1.019,0.297,3.385,-42.265,4.715,14.606,1261.4615,40.7934,29.0312
2018-11-13T10:50:53,0.00096,-0.01096,337.254,-1.022,0.293,3.485,-42.843,4.7149,14.607,1261.4676,40.7934,29.0312
2018-11-13T10:55:53,-0.00179,-0.0123,337.303,-1.026,0.3,3.921,-43.437,4.715,14.606,1261.4628,40.7934,29.0312
2018-11-13T11:00:53,-0.01081,-0.01883,337.311,-1.007,0.296,3.979,-42.739,4.715,14.606,1261.4646,40.7934,29.0312
2018-11-13T11:05:53,0.00565,-0.00165,337.358,-1.023,0.311,3.582,-43.663,4.715,14.606,1261.4693,40.7934,29.0312
2018-11-13T11:10:53,0.01093,-0.0035,337.335,-1.024,0.303,3.659,-43.422,4.715,14.606,1261.465,40.7934,29.0312
2018-11-13T11:15:53,-0.01216,-0.01565,337.328,-1.017,0.3,3.579,-42.965,4.7181,14.606,1261.4676,40.7934,29.0312
2018-11-13T11:20:53,-0.00091,-0.01174,337.355,-1.015,0.296,3.815,-43.815,4.7182,14.605,1261.4685,40.7934,29.0312
2018-11-13T11:25:53,0.00888,-0.01401,337.265,-1.007,0.292,4.265,-42.664,4.7183,14.605,1261.471,40.7934,29.0312
2018-11-13T11:30:53,-0.00373,-0.00046,337.327,-1.017,0.309,3.913,-42.956,4.7183,14.605,1261.4646,40.7934,29.0312
2018-11-13T11:35:53,0.00337,-0.00088,337.33,-1.016,0.311,3.931,-43.538,4.7186,14.606,1261.4636,40.7934,29.0312
2018-11-13T11:40:53,0.00949,-0.01441,337.325,-1.004,0.308,3.819,-43.99,4.7187,14.606,1261.4673,40.7934,29.0312
2018-11-13T11:45:53,0.00604,-0.01383,337.383,-1.016,0.306,3.723,-42.979,4.7188,14.606,1261.4646,40.7934,29.0312
2018-11-13T11:50:53,0.00157,-0.00573,337.34,-0.996,0.301,4.726,-42.979,4.7191,14.606,1261.462,40.7934,29.0312
2018-11-13T11:55:53,-0.00839,-0.00905,337.355,-1.016,0.303,4.101,-43.122,4.719,14.606,1261.4641,40.7934,29.0312
2018-11-13T12:00:53,0.01132,-0.01304,337.353,-1.015,0.31,4.627,-42.833,4.719,14.606,1261.4689,40.7934,29.0312
2018-11-13T12:05:53,0.0032,-0.01053,337.349,-1.011,0.303,3.606,-42.586,4.7191,14.606,1261.4611,40.7934,29.0312
2018-11-13T12:10:53,0.00626,-0.0022,337.409,-1.006,0.297,3.66,-43.381,4.7191,14.605,1261.4624,40.7934,29.0312
2018-11-13T12:15:53,0.00181,-0.01524,337.36,-1.008,0.308,4.022,-43.386,4.7192,14.606,1261.4617,40.7934,29.0312
2018-11-13T12:20:53,0.0033,-0.01382,337.211,-1.009,0.301,3.809,-42.635,4.7192,14.606,1261.4611,40.7934,29.0312
2018-11-13T12:25:53,0.0038,-0.00841,337.316,-1.001,0.305,3.774,-44.077,4.7193,14.606,1261.4608,40.7934,29.0312
2018-11-13T12:30:53,0.00119,-0.01404,337.353,-1.004,0.307,3.949,-43.262,4.7193,14.606,1261.4517,40.7934,29.0312
2018-11-13T12:35:53,-0.01357,-0.01769,337.372,-1.009,0.308,3.17,-45.105,4.7193,14.605,1261.4512,40.7934,29.0312
2018-11-13T12:40:53,-0.0074,-0.01546,337.355,-1.005,0.306,3.823,-45.064,4.7193,14.606,1261.453,40.7934,29.0312
2018-11-13T12:45:53,-0.00416,-0.00061,337.353,-1.005,0.301,3.656,-44.628,4.7193,14.605,1261.4511,40.7934,29.0312
2018-11-13T12:50:53,-0.00126,-0.01725,337.32,-1.001,0.294,3.766,-43.246,4.7193,14.605,1261.4572,40.7934,29.0312
2018-11-13T12:55:53,0.00183,-0.02768,337.335,-1.004,0.302,4.202,-43.507,4.7193,14.606,1261.4535,40.7934,29.0312
2018-11-13T13:00:53,0.00625,-0.01087,337.342,-1.015,0.296,3.731,-44.451,4.7195,14.605,1261.4494,40.7934,29.0312
2018-11-13T13:05:53,0.0057,-0.00983,337.325,-0.997,0.3,4.085,-43.62,4.7193,14.606,1261.4518,40.7934,29.0312
2018-11-13T13:10:53,-0.00288,-0.00251,337.368,-1.008,0.305,4.507,-43.952,4.7195,14.606,1261.4466,40.7934,29.0312
2018-11-13T13:15:53,-0.00185,-0.01774,337.344,-1.012,0.305,5.095,-42.006,4.7195,14.606,1261.4496,40.7934,29.0312
2018-11-13T13:20:53,0.0018,0.00281,337.317,-1.006,0.302,4.19,-42.86,4.7193,14.605,1261.4524,40.7934,29.0312
2018-11-13T13:25:53,-0.00082,-0.01279,337.315,-0.998,0.3,3.807,-43.018,4.7195,14.605,1261.4502,40.7934,29.0312
2018-11-13T13:30:53,-0.01057,-0.01636,337.257,-1.003,0.3,3.295,-44.37,4.7193,14.605,1261.4494,40.7934,29.0312
2018-11-13T13:35:53,-0.00056,-0.01242,337.346,-1,0.299,3.549,-44.815,4.7195,14.606,1261.4515,40.7934,29.0312
2018-11-13T13:40:53,-0.0023,0.00799,337.368,-1.014,0.305,5.336,-43.677,4.7195,14.605,1261.4446,40.7934,29.0312
2018-11-13T13:45:53,-0.01413,0.00144,337.336,-1.003,0.301,4.312,-44.338,4.7195,14.605,1261.4461,40.7934,29.0312
2018-11-13T13:50:53,-0.00059,-0.00506,337.382,-1.011,0.308,5.142,-43.804,4.7195,14.606,1261.446,40.7934,29.0312
2018-11-13T13:55:53,-0.01563,-0.01328,337.371,-1.003,0.305,3.574,-45.332,4.7195,14.606,1261.4431,40.7934,29.0312
2018-11-13T14:00:53,-0.00772,0.0034,337.434,-1.016,0.306,3.529,-44.882,4.7195,14.606,1261.4436,40.7934,29.0312
2018-11-13T14:05:53,0.00835,0.00129,337.381,-1,0.306,3.967,-43.528,4.7195,14.605,1261.4385,40.7934,29.0312
2018-11-13T14:10:53,0.0036,-0.00187,337.366,-1.015,0.301,4.015,-44.922,4.7195,14.605,1261.4436,40.7934,29.0312
2018-11-13T14:15:53,-0.01072,-0.00838,337.365,-1.001,0.305,3.839,-44.532,4.7195,14.606,1261.4452,40.7934,29.0312
2018-11-13T14:20:53,-0.00188,-0.00732,337.347,-0.999,0.31,4.276,-44.188,4.7195,14.605,1261.4394,40.7934,29.0312
2018-11-13T14:25:53,-0.00072,-0.01135,337.339,-1.006,0.303,3.385,-44.793,4.7195,14.604,1261.4419,40.7934,29.0312
2018-11-13T14:30:53,-0.00901,-0.00206,337.392,-1.004,0.308,3.751,-43.676,4.7195,14.605,1261.4418,40.7934,29.0312
2018-11-13T14:35:53,-0.00215,-0.01344,337.387,-1.006,0.3,3.326,-45.494,4.7195,14.605,1261.4365,40.7934,29.0312
2018-11-13T14:40:53,-0.00077,-0.02085,337.349,-1.006,0.292,4.302,-44.863,4.7195,14.604,1261.4382,40.7934,29.0312
2018-11-13T14:45:53,-0.00006,-0.00589,337.342,-1.007,0.303,4.36,-43.969,4.7195,14.606,1261.4404,40.7934,29.0312
2018-11-13T14:50:53,0.00163,-0.01108,337.377,-1.011,0.305,4.077,-44.053,4.7195,14.605,1261.4355,40.7934,29.0312
2018-11-13T14:55:53,-0.01151,-0.01156,337.299,-1.002,0.298,3.15,-44.852,4.7195,14.604,1261.4323,40.7934,29.0312
2018-11-13T15:00:53,0.00821,-0.00189,337.345,-0.996,0.297,4.35,-44.769,4.7195,14.605,1261.4355,40.7934,29.0312
2018-11-13T15:05:53,-0.00166,-0.01086,337.409,-1.005,0.298,3.779,-44.152,4.7195,14.605,1261.4292,40.7934,29.0312
2018-11-13T15:10:53,-0.00649,-0.00454,337.344,-1.012,0.306,3.942,-45.36,4.7195,14.604,1261.4293,40.7934,29.0312
2018-11-13T15:15:53,-0.00705,-0.00326,337.368,-1.005,0.304,3.903,-45.451,4.7195,14.605,1261.4313,40.7934,29.0312
2018-11-13T15:20:53,0.00444,-0.00833,337.419,-1.007,0.305,4.137,-43.146,4.7195,14.604,1261.4297,40.7934,29.0312
2018-11-13T15:25:53,-0.00213,0.00312,337.353,-1.013,0.304,3.936,-45.568,4.7195,14.605,1261.4292,40.7934,29.0312
2018-11-13T15:30:53,-0.00739,-0.00202,337.44,-1.007,0.307,4.161,-44.083,4.7195,14.605,1261.426,40.7934,29.0312
2018-11-13T15:35:53,-0.00182,-0.00292,337.328,-1.013,0.31,4.261,-43.376,4.7195,14.605,1261.4314,40.7934,29.0312
2018-11-13T15:40:53,-0.00657,-0.01531,337.37,-1,0.307,4.299,-44.844,4.7195,14.605,1261.4301,40.7934,29.0312
2018-11-13T15:45:53,0.00107,-0.00355,337.383,-1.013,0.296,4.462,-44.752,4.7193,14.604,1261.4262,40.7934,29.0312
2018-11-13T15:50:53,-0.01219,-0.00744,337.315,-1.014,0.302,3.761,-45.418,4.7196,14.604,1261.4264,40.7934,29.0312
2018-11-13T15:55:53,-0.00488,-0.00639,337.331,-1.01,0.292,3.847,-43.449,4.7196,14.605,1261.4279,40.7934,29.0312
2018-11-13T16:00:53,-0.00932,-0.0099,337.346,-1.005,0.298,4.268,-43.219,4.7193,14.605,1261.4269,40.7934,29.0312
2018-11-13T16:05:53,0.00469,-0.00312,337.357,-1.009,0.299,3.954,-43.817,4.7195,14.605,1261.428,40.7934,29.0312
2018-11-13T16:10:53,-0.00483,-0.00334,337.353,-1.009,0.305,4.458,-44.138,4.7195,14.605,1261.4216,40.7934,29.0312
2018-11-13T16:15:53,-0.00188,0.00107,337.295,-1.006,0.295,3.764,-45.661,4.7195,14.605,1261.4239,40.7934,29.0312
2018-11-13T16:20:53,0.00861,-0.00961,337.353,-1.013,0.301,3.795,-44.119,4.7195,14.605,1261.4243,40.7934,29.0312
2018-11-13T16:25:53,-0.00521,-0.00383,337.34,-1.003,0.3,3.835,-44.858,4.7195,14.604,1261.4202,40.7934,29.0312
2018-11-13T16:30:53,-0.0018,-0.00521,337.381,-1.015,0.305,3.516,-44.203,4.7195,14.604,1261.4201,40.7934,29.0312
2018-11-13T16:35:53,-0.00665,-0.01358,337.335,-1.012,0.299,3.104,-44.119,4.7195,14.605,1261.4208,40.7934,29.0312
2018-11-13T16:40:53,-0.00525,-0.01054,337.358,-1.01,0.302,4.462,-44.404,4.7195,14.605,1261.4206,40.7934,29.0312
2018-11-13T16:45:53,-0.00581,-0.00543,337.367,-1.012,0.3,3.965,-43.432,4.7195,14.604,1261.4141,40.7934,29.0312
2018-11-13T16:50:53,-0.00596,-0.00075,337.347,-1.015,0.297,3.91,-43.742,4.7195,14.604,1261.4192,40.7934,29.0312
2018-11-13T16:55:53,0.00445,-0.00317,337.392,-1.012,0.292,4.104,-43.859,4.7195,14.604,1261.421,40.7934,29.0312
2018-11-13T17:00:53,-0.00771,-0.01582,337.336,-1,0.29,3.646,-44.484,4.7196,14.605,1261.4184,40.7934,29.0312
2018-11-13T17:05:53,0.00046,-0.00297,337.264,-1.001,0.296,3.458,-44.247,4.7196,14.604,1261.4187,40.7934,29.0312
2018-11-13T17:10:53,-0.00294,-0.00605,337.337,-1.008,0.295,3.52,-43.442,4.7196,14.605,1261.4226,40.7934,29.0312
2018-11-13T17:15:53,-0.00407,-0.00851,337.289,-1.008,0.297,4.06,-43.88,4.7196,14.604,1261.4151,40.7934,29.0312
2018-11-13T17:20:53,-0.01058,-0.01174,337.37,-1.009,0.302,3.8,-44.45,4.7195,14.604,1261.4159,40.7934,29.0312
2018-11-13T17:25:53,-0.00415,-0.01092,337.427,-1.015,0.307,4.206,-44.942,4.7196,14.604,1261.4171,40.7934,29.0312
2018-11-13T17:30:53,-0.00808,-0.01531,337.387,-1.009,0.313,3.552,-44.598,4.7196,14.604,1261.4124,40.7934,29.0312
2018-11-13T17:35:53,-0.0054,0.00035,337.402,-1.007,0.299,3.794,-44.113,4.7196,14.605,1261.412,40.7934,29.0312
2018-11-13T17:40:53,-0.00265,-0.00601,337.335,-1.009,0.303,3.998,-43.993,4.7196,14.604,1261.413,40.7934,29.0312
2018-11-13T17:45:53,0.00251,-0.00459,337.348,-0.996,0.302,4.455,-43.235,4.7195,14.605,1261.4166,40.7934,29.0312
2018-11-13T17:50:53,-0.00801,-0.01058,337.327,-1.007,0.297,4.083,-44.091,4.7196,14.604,1261.4126,40.7934,29.0312
2018-11-13T17:55:53,-0.00272,-0.01169,337.483,-1.007,0.302,3.743,-44.56,4.7196,14.604,1261.4112,40.7934,29.0312
2018-11-13T18:00:53,-0.00548,-0.01053,337.231,-1.012,0.303,4.041,-43.839,4.7195,14.605,1261.4073,40.7934,29.0312
2018-11-13T18:05:53,-0.00384,-0.00677,337.297,-1.018,0.296,3.559,-44.548,4.7196,14.604,1261.4132,40.7934,29.0312
2018-11-13T18:10:53,-0.00063,-0.00322,337.25,-1.004,0.301,3.727,-45.351,4.7196,14.605,1261.417,40.7934,29.0312
2018-11-13T18:15:53,-0.0044,-0.02446,337.291,-1.009,0.31,5.103,-44.157,4.7196,14.605,1261.4104,40.7934,29.0312
2018-11-13T18:20:53,0.00011,-0.01521,337.222,-1.005,0.306,3.967,-44.327,4.7196,14.605,1261.4097,40.7934,29.0312
2018-11-13T18:25:53,-0.00038,-0.01757,337.233,-1.015,0.309,4.126,-44.769,4.7196,14.604,1261.4059,40.7934,29.0312
2018-11-13T18:30:53,-0.00129,-0.00696,337.261,-1.003,0.306,4.398,-44.549,4.7195,14.604,1261.4054,40.7934,29.0312
2018-11-13T18:35:53,-0.00872,-0.00613,337.212,-1.011,0.305,5.834,-45.035,4.7196,14.605,1261.4063,40.7934,29.0312
2018-11-13T18:40:53,-0.00995,-0.00847,337.247,-1.013,0.305,3.992,-44.434,4.7196,14.604,1261.4012,40.7934,29.0312
2018-11-13T18:45:53,-0.00695,-0.01491,337.27,-1.013,0.314,4.129,-44.654,4.7195,14.605,1261.4049,40.7934,29.0312
2018-11-13T18:50:53,-0.00696,-0.00795,337.276,-1.009,0.309,3.898,-44.24,4.7196,14.605,1261.4063,40.7934,29.0312
2018-11-13T18:55:53,0.00036,-0.00803,337.23,-1.004,0.306,4.226,-45.124,4.7196,14.604,1261.4016,40.7934,29.0312
2018-11-13T19:00:53,0.00026,-0.0134,337.214,-1.007,0.303,3.706,-45.491,4.7196,14.605,1261.4016,40.7934,29.0312
2018-11-13T19:05:53,0.00178,-0.00421,337.264,-1.009,0.313,3.859,-43,4.7196,14.605,1261.4015,40.7934,29.0312
2018-11-13T19:10:53,-0.00336,-0.00628,337.248,-1.006,0.319,5.095,-43.618,4.7196,14.605,1261.4051,40.7934,29.0312
2018-11-13T19:15:53,0.00581,-0.00747,337.249,-1.008,0.303,4.313,-44.551,4.7196,14.605,1261.4011,40.7934,29.0312
2018-11-13T19:20:53,-0.00624,-0.00736,337.216,-1.013,0.308,4.298,-43.824,4.7196,14.604,1261.3971,40.7934,29.0312
2018-11-13T19:25:53,-0.00115,-0.00813,337.211,-1.012,0.303,3.75,-44.484,4.7196,14.605,1261.4009,40.7934,29.0312
2018-11-13T19:30:53,-0.0019,-0.00589,337.261,-1.015,0.301,4.158,-43.966,4.7196,14.605,1261.4039,40.7934,29.0312
2018-11-13T19:35:53,0.00399,-0.00954,337.238,-1.012,0.306,4.024,-43.621,4.7196,14.604,1261.3956,40.7934,29.0312
2018-11-13T19:40:53,0.0037,-0.01666,337.236,-1.009,0.303,3.952,-43.433,4.7196,14.604,1261.4012,40.7934,29.0312
2018-11-13T19:45:53,-0.00508,-0.01464,337.235,-1.01,0.294,3.89,-43.906,4.7196,14.605,1261.3985,40.7934,29.0312
2018-11-13T19:50:53,0.00065,-0.00894,337.221,-1.008,0.306,3.663,-44.164,4.7196,14.605,1261.3993,40.7934,29.0312
2018-11-13T19:55:53,0.00257,-0.00676,337.241,-1.002,0.311,4.404,-43.78,4.7196,14.605,1261.399,40.7934,29.0312
2018-11-13T20:00:53,0.00423,-0.02078,337.222,-1.015,0.306,3.605,-43.193,4.7196,14.605,1261.3973,40.7934,29.0312
2018-11-13T20:05:53,0.004,-0.00795,337.191,-1.006,0.286,3.819,-44.092,4.7196,14.605,1261.3936,40.7934,29.0312
2018-11-13T20:10:53,-0.00064,-0.01011,337.246,-1.008,0.295,3.409,-44.249,4.7196,14.604,1261.3947,40.7934,29.0312
2018-11-13T20:15:53,-0.00346,-0.01049,337.221,-1.007,0.303,3.675,-44.364,4.7196,14.605,1261.3933,40.7934,29.0312
2018-11-13T20:20:53,0.00009,-0.00259,337.218,-1.01,0.3,3.811,-44.194,4.7197,14.605,1261.4012,40.7934,29.0312
2018-11-13T20:25:53,-0.00344,-0.01547,337.217,-1.006,0.305,4.147,-43.822,4.7197,14.605,1261.3989,40.7934,29.0312
2018-11-13T20:30:53,-0.00012,0.00403,337.189,-1,0.296,4.141,-42.92,4.7198,14.605,1261.3925,40.7934,29.0312
2018-11-13T20:35:53,-0.00114,-0.00319,337.256,-1.013,0.303,3.911,-43.834,4.7197,14.606,1261.3946,40.7934,29.0312
2018-11-13T20:40:53,-0.00577,-0.01198,337.202,-1.012,0.293,4.095,-43.652,4.7196,14.604,1261.3917,40.7934,29.0312
2018-11-13T20:45:53,-0.00464,-0.00652,337.224,-1.006,0.304,3.442,-44.514,4.7196,14.604,1261.3909,40.7934,29.0312
2018-11-13T20:50:53,0.00096,-0.00604,337.262,-1.006,0.307,3.712,-44.036,4.7196,14.604,1261.3913,40.7934,29.0312
2018-11-13T20:55:53,0.00028,-0.01148,337.215,-1.008,0.297,4.044,-43.813,4.7196,14.605,1261.393,40.7934,29.0312
2018-11-13T21:00:53,-0.00396,-0.01254,337.193,-1.006,0.296,3.65,-44.568,4.7196,14.604,1261.3896,40.7934,29.0312
2018-11-13T21:05:53,-0.00373,-0.01565,337.221,-1,0.297,3.355,-45.048,4.7196,14.605,1261.3882,40.7934,29.0312
2018-11-13T21:10:53,0.0085,-0.00653,337.186,-1.013,0.297,3.755,-44.992,4.7196,14.604,1261.392,40.7934,29.0312
2018-11-13T21:15:53,0.00354,-0.01488,337.185,-1.011,0.298,4.107,-43.732,4.7196,14.605,1261.3919,40.7934,29.0312
2018-11-13T21:20:53,-0.00479,-0.00009,337.248,-1.016,0.309,3.946,-44.51,4.7195,14.604,1261.3881,40.7934,29.0312
2018-11-13T21:25:53,0.00411,-0.01511,337.207,-1.021,0.299,3.75,-45.131,4.7196,14.604,1261.386,40.7934,29.0312
2018-11-13T21:30:53,0.01009,-0.0024,337.24,-1.013,0.309,4.392,-44.579,4.7196,14.605,1261.3845,40.7934,29.0312
2018-11-13T21:35:53,-0.00499,-0.00452,337.212,-1.013,0.306,3.347,-44.165,4.7196,14.604,1261.3873,40.7934,29.0312
2018-11-13T21:40:53,-0.00012,-0.00612,337.208,-1.013,0.306,3.949,-44.157,4.7197,14.604,1261.3867,40.7934,29.0312
2018-11-13T21:45:53,0.00359,-0.01434,337.278,-1.014,0.312,4.439,-43.337,4.7196,14.603,1261.378,40.7934,29.0312
2018-11-13T21:50:53,0.00245,0.00061,337.283,-1.013,0.314,4.048,-43.291,4.7196,14.605,1261.3811,40.7934,29.0312
2018-11-13T21:55:53,0.00007,-0.00936,337.209,-1.016,0.307,3.842,-42.97,4.7196,14.604,1261.3776,40.7934,29.0312
2018-11-13T22:00:53,0.00224,-0.00336,337.207,-1.002,0.304,3.747,-43.569,4.7196,14.604,1261.3808,40.7934,29.0312
2018-11-13T22:05:53,-0.00547,-0.01449,337.234,-1.013,0.302,4.098,-43.355,4.7195,14.604,1261.3815,40.7934,29.0312
2018-11-13T22:10:53,0.01137,-0.00154,337.225,-1.013,0.312,4.145,-43.234,4.7196,14.604,1261.3808,40.7934,29.0312
2018-11-13T22:15:53,-0.00623,-0.01228,337.197,-1.009,0.317,3.82,-43.785,4.7195,14.604,1261.385,40.7934,29.0312
2018-11-13T22:20:53,-0.00063,-0.0096,337.269,-1.015,0.315,3.957,-43.491,4.7196,14.604,1261.3798,40.7934,29.0312
2018-11-13T22:25:53,0.00227,0.0006,337.273,-1.016,0.312,4.159,-43.195,4.7195,14.604,1261.3787,40.7934,29.0312
2018-11-13T22:30:53,0.00238,-0.00776,337.216,-1.016,0.313,3.541,-43.747,4.7195,14.604,1261.3733,40.7934,29.0312
2018-11-13T22:35:53,-0.00055,-0.01272,337.226,-1.007,0.315,4.037,-43.956,4.7195,14.604,1261.373,40.7934,29.0312
2018-11-13T22:40:53,-0.00217,-0.00675,337.262,-1.014,0.322,4.102,-43.895,4.7195,14.604,1261.3731,40.7934,29.0312
2018-11-13T22:45:53,0.00433,-0.00411,337.272,-1.019,0.315,4.83,-42.971,4.7195,14.605,1261.3765,40.7934,29.0312
2018-11-13T22:50:53,-0.00024,-0.00934,337.235,-1.017,0.303,3.988,-43.275,4.7195,14.604,1261.3738,40.7934,29.0312
2018-11-13T22:55:53,0.00363,-0.01231,337.283,-1.022,0.306,3.98,-43.135,4.7196,14.604,1261.3763,40.7934,29.0312
2018-11-13T23:00:53,0.00568,-0.00756,337.212,-1.009,0.31,3.702,-43.702,4.7195,14.604,1261.3725,40.7934,29.0312
2018-11-13T23:05:53,0.00755,-0.01462,337.265,-1.012,0.317,4.126,-43.533,4.7195,14.604,1261.3779,40.7934,29.0312
2018-11-13T23:10:53,0.01105,-0.01599,337.185,-1.016,0.305,5.439,-42.946,4.7195,14.604,1261.3786,40.7934,29.0312
2018-11-13T23:15:53,0.00275,-0.00318,337.288,-1.013,0.321,4.034,-43.943,4.7195,14.605,1261.3789,40.7934,29.0312
2018-11-13T23:20:53,0.00846,-0.00894,337.284,-1.023,0.318,4.685,-44.488,4.7195,14.604,1261.3721,40.7934,29.0312
2018-11-13T23:25:53,-0.00318,-0.01236,337.303,-1.015,0.315,4.243,-44.474,4.7195,14.604,1261.3754,40.7934,29.0312
2018-11-13T23:30:53,-0.00422,-0.00656,337.253,-1.014,0.318,3.243,-43.764,4.7195,14.604,1261.3729,40.7934,29.0312
2018-11-13T23:35:53,-0.0065,-0.00497,337.244,-1.01,0.311,3.748,-43.635,4.7195,14.604,1261.3734,40.7934,29.0312
2018-11-13T23:40:53,0.00922,-0.0133,337.238,-1.016,0.309,4.698,-42.628,4.7195,14.604,1261.3706,40.7934,29.0312
2018-11-13T23:45:53,0.00293,-0.00823,337.254,-1.015,0.317,4.002,-44.76,4.7196,14.604,1261.3721,40.7934,29.0312
2018-11-13T23:50:53,-0.00386,0.00261,337.25,-1.01,0.311,3.695,-44.069,4.7196,14.604,1261.3683,40.7934,29.0312
2018-11-13T23:55:53,0.00632,-0.00687,337.252,-1.014,0.32,3.88,-43.694,4.7196,14.605,1261.3706,40.7934,29.0312
2018-11-14T00:00:53,0.00076,0.00348,337.253,-1.016,0.317,3.689,-43.202,4.7195,14.604,1261.3718,40.7934,29.0312
2018-11-14T00:05:53,0.00718,-0.00698,337.208,-1.008,0.317,4.101,-43.735,4.7195,14.604,1261.3718,40.7934,29.0312
2018-11-14T00:10:53,0.0049,-0.00501,337.236,-1.012,0.321,4.272,-43.208,4.7196,14.604,1261.3759,40.7934,29.0312
2018-11-14T00:15:53,0.00685,-0.00774,337.286,-1.011,0.326,4.105,-44.349,4.7196,14.604,1261.3748,40.7934,29.0312
2018-11-14T00:20:53,-0.00294,-0.00297,337.241,-1.012,0.31,3.718,-43.482,4.7196,14.604,1261.3728,40.7934,29.0312
2018-11-14T00:25:53,-0.00848,-0.01143,337.243,-1.016,0.313,3.864,-43.693,4.7196,14.604,1261.3716,40.7934,29.0312
2018-11-14T00:30:53,0.0079,-0.00944,337.244,-1.01,0.315,4.338,-43.916,4.7195,14.604,1261.3668,40.7934,29.0312
2018-11-14T00:35:53,0.00563,-0.0047,337.239,-1.02,0.321,3.68,-42.9,4.7195,14.605,1261.3652,40.7934,29.0312
2018-11-14T00:40:53,-0.002,-0.01088,337.228,-1.012,0.313,3.649,-43.237,4.7195,14.604,1261.3653,40.7934,29.0312
2018-11-14T00:45:53,-0.00119,0.0007,337.29,-1.014,0.317,5.25,-43.557,4.7196,14.604,1261.3624,40.7934,29.0312
2018-11-14T00:50:53,0.00793,-0.0102,337.214,-1.025,0.318,4.097,-44.628,4.7195,14.604,1261.3616,40.7934,29.0312
2018-11-14T00:55:53,0.00488,0.0022,337.274,-1.006,0.306,4.03,-43.914,4.7195,14.604,1261.3628,40.7934,29.0312
2018-11-14T01:00:53,-0.00254,0.00245,337.22,-1.013,0.316,3.918,-44.139,4.7195,14.604,1261.3569,40.7934,29.0312
2018-11-14T01:05:53,0.00454,-0.00752,337.246,-1.015,0.314,4.433,-44.186,4.7195,14.605,1261.3624,40.7934,29.0312
2018-11-14T01:10:53,0.00246,-0.00709,337.22,-1.005,0.314,3.489,-42.438,4.7195,14.605,1261.3629,40.7934,29.0312
2018-11-14T01:15:53,-0.00541,-0.01236,337.268,-1.012,0.314,4.507,-42.663,4.7195,14.604,1261.3604,40.7934,29.0312
2018-11-14T01:20:53,-0.00043,-0.00902,337.23,-1.008,0.314,3.851,-43.68,4.7195,14.604,1261.3597,40.7934,29.0312
2018-11-14T01:25:53,0.0038,-0.00243,337.246,-1.007,0.305,4.046,-43.746,4.7195,14.605,1261.3641,40.7934,29.0312
2018-11-14T01:30:53,0.00544,0.0075,337.279,-1.007,0.314,4.414,-43.418,4.7193,14.605,1261.3646,40.7934,29.0312
2018-11-14T01:35:53,0.00445,-0.007,337.274,-1.009,0.312,3.895,-42.622,4.7193,14.604,1261.3643,40.7934,29.0312
2018-11-14T01:40:53,0.00478,-0.00558,337.175,-1.013,0.299,4.08,-43.665,4.7195,14.604,1261.3616,40.7934,29.0312
2018-11-14T01:45:53,-0.005,-0.01155,337.224,-1.006,0.301,3.7,-44.183,4.7195,14.604,1261.3598,40.7934,29.0312
2018-11-14T01:50:53,-0.00004,-0.0061,337.248,-1.005,0.314,5.361,-43.999,4.7195,14.604,1261.3607,40.7934,29.0312
2018-11-14T01:55:53,-0.00075,-0.00839,337.214,-1.015,0.31,3.602,-42.74,4.7193,14.605,1261.3669,40.7934,29.0312
2018-11-14T02:00:53,-0.00572,0.0047,337.249,-1.009,0.309,4.177,-42.827,4.7193,14.604,1261.3681,40.7934,29.0312
2018-11-14T02:05:53,-0.00299,-0.00363,337.236,-1.017,0.321,3.286,-43.311,4.7193,14.605,1261.3636,40.7934,29.0312
2018-11-14T02:10:53,0.00212,-0.0056,337.287,-1.01,0.299,3.763,-44.15,4.7193,14.605,1261.3669,40.7934,29.0312
2018-11-14T02:15:53,-0.00115,-0.0037,337.212,-1.002,0.307,3.801,-42.696,4.7193,14.605,1261.3644,40.7934,29.0312
2018-11-14T02:20:53,0.00038,-0.00078,337.25,-1.012,0.307,4.004,-44.163,4.7193,14.605,1261.3635,40.7934,29.0312
2018-11-14T02:25:53,-0.00321,-0.00538,337.298,-1.022,0.314,3.612,-42.771,4.7193,14.606,1261.3671,40.7934,29.0312